Probability
0 0 0 0 0 0 0 0 0 0 0 0 0 0 0 0 0 0 0 0 0 0 0 0 0 0 0 0 1 2 2 1 0 0 0 0 0 0
0 0 0 0 0 0 0 0 0 0 0 0 0 0 0 0 0 0 0 0 0 0 0 0 0 0 0 0 0 1 1 0 0 0 0 0 0 0
0 0 0 0 1 1 1 0 0 0 0 0 0 0 0 0 0 0 0 0 0 0 0 0 0 0 0 0 0 0 0 0 0 0 0 0 0 0
0 0 0 0 1 1 1 0 0 0 0 0 0 0 0 0 0 0 0 0 0 0 0 0 0 0 0 0 0 0 0 0 0 0 0 0 0 0
0 0 0 0 0 0 0 0 0 0 0 0 0 0 0 0 0 0 0 0 0 0 0 0 0 0 0 0 0 0 0 0 0 0 0 0 0 0
0 0 0 0 0 0 0 0 0 0 0 0 0 0 0 0 0 0 0 0 0 0 0 0 0 0 0 0 0 0 0 0 0 0 0 0 0 0
0 0 0 0 0 0 0 0 0 0 0 0 0 0 0 0 0 0 0 0 0 0 0 0 0 0 0 0 0 0 0 0 0 0 0 0 0 0
0 0 0 0 0 0 0 0 0 0 0 0 0 0 0 0 0 0 0 0 0 0 0 0 0 0 0 0 0 0 0 0 0 0 0 0 0 0
0 0 0 0 0 0 0 0 0 0 0 0 0 0 0 0 0 0 0 0 0 0 0 0 0 0 0 0 0 0 0 0 0 0 0 0 0 0
0 0 0 0 0 0 0 0 0 0 0 0 0 0 0 0 0 0 0 0 0 0 0 0 0 0 0 0 0 0 0 0 0 0 0 0 0 0
0 0 0 0 0 0 0 0 0 0 0 0 0 0 0 0 0 0 0 0 0 0 0 0 0 0 0 0 0 0 0 0 0 0 0 0 0 0
0 0 0 0 0 0 0 0 0 0 0 0 0 0 0 0 0 0 0 0 0 0 0 0 0 0 0 0 0 0 0 0 0 0 0 0 0 0
0 0 0 0 0 0 0 0 0 0 0 0 0 0 0 0 0 0 0 0 0 0 0 0 0 0 0 0 0 0 0 0 0 0 0 0 0 0
0 0 0 0 0 0 0 0 0 0 0 0 0 0 0 0 0 0 0 0 0 0 0 0 0 0 0 0 0 0 0 0 0 0 0 0 0 0
0 0 0 0 0 0 0 0 0 0 0 0 0 0 0 0 0 0 0 0 0 0 0 0 0 0 0 0 0 0 0 0 0 0 0 0 0 0
0 0 0 0 0 0 0 0 0 0 0 0 0 0 0 0 0 0 0 0 0 0 0 0 0 0 0 0 0 0 0 0 0 0 0 0 0 0
0 0 0 0 0 0 0 0 0 0 0 0 0 0 0 0 0 0 0 0 0 0 0 0 0 0 0 0 0 0 0 0 0 0 0 0 0 0
0 0 0 0 0 0 0 0 0 0 0 0 0 0 0 0 0 0 0 0 0 0 0 0 0 0 0 0 0 0 0 0 0 0 0 0 0 0
0 0 0 0 0 0 0 0 0 0 0 0 0 0 0 0 0 0 0 0 0 0 0 0 0 0 0 0 0 0 0 0 0 0 0 0 0 0
0 0 0 0 0 0 0 0 0 0 0 0 0 0 0 0 0 0 0 0 0 0 0 0 0 0 0 0 0 0 0 0 0 0 0 0 0 0
0 0 0 0 0 0 0 0 0 0 0 0 0 0 0 0 0 0 0 0 0 0 0 0 0 0 0 0 0 0 0 0 0 0 0 0 0 0
0 0 0 0 0 0 0 0 0 0 0 0 0 0 0 0 0 0 0 0 0 0 0 0 0 0 0 0 0 0 0 0 0 0 0 0 0 0
0 0 0 0 0 0 0 0 0 0 0 0 0 0 0 0 0 0 0 0 0 0 0 0 0 0 0 0 0 0 0 0 0 0 0 0 0 0
Wind_Speed
3 3 3 3 3 2 2 3 3 3 4 3 2 2 1 1 2 3 3 5 6 6 6 6 6 6 6 6 6 5 6 6 7 7 7 8 9 10
2 3 3 3 3 3 3 3 3 3 4 2 2 2 1 2 3 2 3 5 6 7 7 6 5 4 6 6 6 5 5 6 6 6 7 8 9 10
2 3 4 3 3 3 3 3 3 3 4 3 2 2 2 2 2 2 3 3 4 7 6 6 5 4 5 6 5 5 5 5 5 6 7 8 9 10
3 3 4 3 4 3 3 4 3 3 3 4 3 2 2 2 2 3 3 3 3 5 6 6 5 5 6 6 5 5 4 4 5 6 7 8 8 9
3 3 3 3 4 3 3 3 3 2 2 3 3 2 2 2 2 2 2 2 2 3 5 5 5 5 6 5 5 4 4 4 5 5 6 7 8 8
2 3 3 3 3 3 3 4 3 3 3 3 2 2 2 2 2 2 1 2 2 2 3 3 4 5 5 5 4 4 3 3 4 5 5 6 7 8
3 3 3 4 5 4 3 3 4 3 3 2 3 2 2 2 2 1 1 2 2 1 1 2 2 2 3 4 3 3 3 3 4 4 5 5 6 7
3 3 3 3 4 4 4 4 5 5 4 3 3 3 3 2 1 1 1 1 2 1 0 2 2 2 2 2 2 2 2 3 3 4 4 5 6 7
3 2 3 2 2 2 2 3 3 4 5 5 4 4 4 3 2 2 2 2 2 2 1 2 2 2 2 2 3 2 1 2 3 3 4 5 6 7
2 2 2 1 1 1 1 2 2 3 4 4 4 4 3 3 3 3 3 1 1 1 1 2 1 2 2 2 2 1 1 2 3 3 4 5 6 7
2 2 1 1 1 1 1 1 2 2 2 3 4 4 4 4 3 2 1 1 1 2 1 1 1 1 1 1 1 1 2 2 3 3 4 5 6 6
2 2 2 2 2 2 1 2 2 2 1 2 2 2 3 3 4 4 3 3 1 1 1 0 0 1 1 1 1 0 1 2 3 4 5 5 6 3
2 2 2 2 2 3 2 2 2 2 1 2 2 1 1 1 2 1 2 3 3 2 2 1 1 1 1 1 1 1 0 1 1 2 3 5 6 4
2 2 2 3 3 3 2 2 2 1 1 0 0 1 1 0 0 0 0 1 2 3 3 2 2 1 1 0 1 1 1 1 1 1 2 4 5 6
2 4 4 5 3 2 2 2 1 0 0 0 0 1 0 0 1 1 1 1 1 1 1 1 2 1 1 1 1 1 1 1 1 1 2 1 2 3
3 3 4 4 3 3 2 2 1 0 0 0 0 0 0 1 1 1 0 0 1 2 2 1 1 1 1 1 1 1 1 1 1 2 2 2 2 2
3 2 2 2 2 2 2 2 2 1 1 1 0 0 0 1 0 0 1 0 1 0 1 2 1 1 1 1 1 1 1 1 1 1 1 2 2 2
3 2 2 2 2 2 2 2 2 1 1 1 1 0 0 1 0 0 0 1 1 1 0 0 1 2 2 2 0 1 1 1 1 2 1 2 3 3
3 2 2 2 2 2 2 2 2 2 1 1 1 0 0 0 0 0 1 1 1 1 0 0 0 1 1 1 2 1 0 1 1 1 1 2 3 3
3 3 3 2 2 2 2 2 2 2 1 1 1 0 0 1 1 0 1 1 1 0 0 0 0 0 1 1 1 2 2 1 1 1 2 2 2 4
3 3 3 2 2 2 2 2 2 2 2 1 1 1 0 0 0 0 0 0 0 0 0 0 1 1 1 1 1 1 2 3 1 1 1 2 2 3
3 3 3 3 2 2 2 2 2 2 1 2 1 1 1 1 0 0 0 0 0 0 0 0 0 1 1 1 1 1 2 3 3 4 3 2 1 1
4 3 3 3 3 2 2 2 2 2 1 1 1 1 1 1 1 1 1 1 1 1 1 1 1 1 1 1 1 1 2 2 2 3 3 5 4 4
Wind_Direction
238 237 242 248 233 226 218 204 208 239 253 240 233 225 214 215 219 223 221 236 246 251 259 266 273 279 286 285 289 289 291 295 302 305 305 306 308 309
250 238 244 251 242 223 215 221 218 224 247 241 241 259 254 263 249 247 235 243 245 250 255 259 262 274 287 284 288 284 288 294 302 306 308 311 313 312
272 252 244 245 243 228 217 216 221 219 245 264 260 254 243 251 264 260 252 227 237 243 248 251 255 269 282 280 283 284 290 299 303 305 308 311 314 314
260 259 256 251 242 231 220 219 218 216 228 255 271 260 249 234 252 265 266 253 227 239 249 249 253 264 272 273 278 283 288 295 303 310 311 311 313 314
267 260 261 258 250 236 223 224 226 229 224 234 256 260 258 247 246 263 259 269 247 237 245 242 248 262 269 269 273 282 283 290 300 306 309 311 313 314
280 273 266 259 265 252 232 225 221 224 225 226 239 246 256 249 217 227 280 303 286 263 252 257 264 267 263 265 267 275 281 293 304 309 311 313 317 317
282 273 263 262 266 261 250 225 215 219 221 223 228 243 248 230 219 204 254 303 293 260 234 265 278 257 241 249 254 266 280 295 308 313 315 318 318 318
272 271 266 256 267 268 271 258 229 215 217 220 232 230 231 226 230 219 232 284 286 266 263 273 262 256 247 237 253 259 267 295 312 323 323 320 317 318
267 269 279 273 278 252 271 285 261 238 224 217 220 228 225 217 212 228 245 244 255 249 282 264 255 260 269 274 268 250 270 317 325 326 327 326 326 326
283 271 270 280 259 268 265 264 260 248 233 225 218 228 226 208 203 222 232 254 299 268 209 241 251 269 293 273 244 215 306 331 332 329 328 330 331 330
297 296 280 259 289 306 267 259 272 272 255 245 240 245 240 235 221 206 191 178 278 282 254 198 248 318 299 263 246 245 318 330 332 325 327 335 335 330
311 309 295 283 281 281 248 234 255 261 269 267 249 247 233 224 216 203 192 191 208 261 256 181 179 48 329 298 287 300 318 328 338 334 334 341 341 342
316 319 312 310 294 294 293 251 272 268 247 258 238 223 214 199 190 193 199 198 208 231 216 152 172 144 178 295 314 308 302 307 326 327 329 338 339 340
316 320 325 317 309 313 312 316 328 312 243 245 227 213 198 205 65 133 181 228 237 230 217 191 180 180 163 268 282 312 318 323 348 338 324 331 334 333
329 335 338 334 330 338 347 343 344 4 137 132 264 267 236 198 120 92 57 24 332 294 243 233 196 191 186 210 240 268 313 320 338 340 326 323 318 325
339 343 348 348 344 343 347 345 348 51 79 146 307 296 3 108 109 120 145 58 33 9 10 7 198 170 178 222 212 261 288 292 321 331 331 325 324 320
330 338 351 351 353 357 7 9 15 28 29 35 88 134 126 121 124 118 175 182 156 144 8 20 35 71 109 168 213 234 266 308 304 317 329 320 313 312
349 353 356 353 349 354 2 6 4 9 15 22 35 71 162 151 142 132 148 163 159 164 168 111 68 55 43 21 334 227 268 297 311 315 319 308 307 315
10 6 359 356 352 353 355 359 353 350 7 26 11 345 162 143 135 166 161 149 154 172 213 193 112 110 99 326 324 344 273 303 314 311 313 308 292 301
11 7 1 357 347 345 351 357 357 359 8 10 3 340 200 166 158 181 180 158 163 159 79 22 15 204 203 221 251 316 337 318 288 297 307 310 305 305
360 359 356 350 344 345 354 359 356 354 357 355 346 338 355 142 142 156 146 168 163 146 144 322 302 341 88 91 67 354 342 347 338 287 295 315 325 333
351 351 352 354 353 353 357 355 349 348 354 353 346 348 3 58 81 91 121 136 165 164 186 332 354 53 83 114 101 359 343 347 355 357 349 329 284 288
346 346 349 354 356 350 347 344 341 343 351 354 350 347 356 30 53 59 66 83 108 107 95 92 56 60 73 113 109 52 360 348 352 3 353 347 340 312